Location: Durolipons
(52.3167°N, 0.1667°W)
Time: 23:09:00
(UTC+00:00)

Daily predictions for brighter satellites

Satellite Brightness Start Highest point End
(mag) Time Altitude Azimuth Time Altitude Azimuth Time Altitude Azimuth
Cosmos 1570 Rocket 4.0 16:19:52 10° NNW 16:25:13 70° ENE 16:30:32 10° SSE
Cosmos 1092 Rocket 4.0 16:19:55 10° N 16:26:08 82° E 16:32:17 10° SSE
Cosmos 836 Rocket 4.5 16:23:16 10° NNW 16:28:31 68° ENE 16:33:45 10° SE
SMAP 3.5 16:27:25 10° SE 16:31:42 38° ENE 16:36:02 10° N
Cosmos 1656 4.4 16:26:53 10° S 16:31:57 36° ESE 16:37:05 10° NE
Cosmos 1867 3.9 16:29:04 10° NW 16:34:20 46° NE 16:39:35 10° ESE
NOSS 2-2 (C) 3.0 16:31:58 10° SSW 16:35:07 51° SE 16:38:02 10° NE
Cosmos 2228 3.1 16:31:44 10° S 16:35:52 54° E 16:40:01 10° NNE
YAOGAN 1 4.3 16:34:15 10° ENE 16:35:58 12° NE 16:37:41 10° NNE
Landsat 7 4.4 16:33:02 10° SE 16:37:13 34° ENE 16:41:25 10° N
Cosmos 2297 Rocket 2.2 16:32:57 10° NNW 16:38:36 61° NE 16:44:12 10° SE
USA 290 2.7 16:35:46 10° NNW 16:38:51 37° ENE 16:41:55 10° SE
Cosmos 773 Rocket 4.0 16:36:50 10° NNW 16:42:03 70° ENE 16:47:16 10° SSE
USA 215 3.5 16:36:04 10° ENE 16:42:31 62° N 16:48:58 10° W
Cosmos 2034 Rocket 4.4 16:37:37 10° SSW 16:43:57 72° WNW 16:50:20 10° N
ATLAS CENTAUR R/B 0.8 16:42:22 10° NW 16:45:39 82° SW 16:48:50 10° SE
CZ-4C R/B 2.9 16:39:42 10° NW 16:46:12 68° NE 16:54:28 10° ESE
Cosmos 1782 3.2 16:43:01 10° SSE 16:46:19 35° E 16:49:39 10° NNE
JB-3 4.2 16:43:25 10° NNE 16:47:07 81° WNW 16:50:44 10° SSW
Cosmos 1607 3.9 16:41:26 10° NW 16:47:40 75° NE 16:53:57 10° SE
Cosmos 1733 1.4 16:47:22 10° N 16:48:55 38° ENE 16:50:26 10° SSE
CZ-2D R/B 3.5 16:50:10 10° SE 16:52:56 29° ENE 16:55:44 10° N
Cosmos 2219 4.3 16:50:15 10° NNW 16:54:55 25° NE 16:59:33 10° E
Lacrosse 4 Rocket 1.9 16:51:00 10° SW 16:54:58 52° NW 16:58:55 10° NNE
Cosmos 1825 Rocket 4.4 16:51:59 10° N 16:55:43 27° ENE 16:59:23 10° SE
ARIANE 5 R/B 2.6 16:52:52 10° SE 16:57:46 53° ENE 17:02:46 10° N
Meteor 1-27 4.4 16:52:05 10° SSW 16:57:54 87° WNW 17:03:43 10° NNE
Iridium 51 3.7 16:54:57 10° S 16:58:04 84° W 17:01:18 10° N
Cosmos 2266 Rocket 4.1 16:52:09 10° N 16:58:10 50° ENE 17:04:03 10° SSE
Cosmos 1758 Rocket 3.4 16:53:50 10° N 16:58:11 74° ENE 17:02:28 10° SSE
Cosmos 1315 Rocket 3.0 16:55:31 10° SSW 16:59:19 68° WNW 17:03:10 10° N
Cosmos 2208 Rocket 4.0 16:56:34 10° NNW 17:01:46 85° WSW 17:06:56 10° SSE
Cosmos 2098 Rocket 3.3 16:58:46 10° SSE 17:02:46 50° E 17:07:28 10° NNE
Cosmos 2151 3.0 16:59:27 10° N 17:03:31 52° ENE 17:07:35 10° SSE
Cosmos 1743 2.2 17:01:01 10° N 17:04:15 60° ENE 17:07:27 10° SSE
Cosmos 1980 Rocket 3.9 17:05:27 10° ESE 17:07:37 12° E 17:08:00 12° E
SPOT 1/Viking Rocket 4.1 17:03:10 10° SE 17:07:49 34° ENE 17:12:30 10° N
Cosmos 1844 Rocket 4.3 17:05:36 10° NNW 17:09:02 16° NNE 17:10:59 14° NE
SL-08 ROCKET BODY 4.4 17:05:48 10° N 17:11:46 90° E 17:17:48 10° S
SL-16 R/B 2.6 17:09:05 10° NNE 17:15:22 84° WNW 17:21:34 10° SSW
Cosmos 2263 Rocket 2.7 17:11:32 10° NNW 17:16:49 38° NE 17:22:06 10° ESE
NOSS 3-2 (A) 3.2 17:13:58 10° SW 17:19:05 83° SE 17:24:05 16° NE
NOSS 3-2 (C) 3.7 17:14:32 10° S 17:19:15 40° ESE 17:23:02 19° ENE
IGS 5A 4.3 17:16:57 10° S 17:20:49 51° W 17:24:43 10° NNW
CORIOLIS 4.2 17:15:32 10° SSE 17:20:52 82° WSW 17:26:16 10° NNW
Cosmos 1626 Rocket 4.2 17:17:11 10° NNW 17:21:27 58° W 17:25:40 10° S
Cosmos 2084 4.3 17:18:36 10° W 17:22:32 39° NNW 17:25:23 17° NNE
Cosmos 783 Rocket 4.4 17:17:31 10° NNW 17:22:51 73° ENE 17:28:08 10° SSE
GEOS 3 Rocket 3.7 17:19:36 16° NE 17:23:56 70° SE 17:29:18 10° SW
BREEZE M DEB (TANK) 3.8 17:23:19 10° SSW 17:24:49 15° SSE 17:25:20 14° SE
MOS 1 Rocket 3.4 17:20:06 10° SSE 17:24:57 63° ENE 17:30:06 10° N
Cosmos 1076 Rocket 4.1 17:21:16 10° N 17:25:09 32° ENE 17:29:02 10° SE
AQUARIUS 4.0 17:23:33 10° SSE 17:27:56 69° ENE 17:32:20 10° N
Cosmos 1933 3.7 17:25:19 10° SSE 17:28:52 37° E 17:30:45 22° NE
Cosmos 2084 Rocket 3.5 17:25:25 10° NW 17:29:38 76° SW 17:33:50 10° SE
Cosmos 2227 Rocket 2.1 17:24:10 10° NNW 17:29:48 66° NE 17:35:25 10° SE
Cosmos 1538 Rocket 4.4 17:25:49 10° NNW 17:30:46 39° NE 17:35:44 10° ESE
SJ-12 3.6 17:27:02 10° SSE 17:30:48 84° ENE 17:34:37 10° NNW
BlueWalker 3 4.5 17:28:23 10° W 17:31:06 20° SW 17:33:50 10° S
Meteor 1-28 Rocket 3.6 17:28:46 10° N 17:32:03 53° WNW 17:35:18 10° SSW
Cosmos 1900 4.4 17:27:12 10° NW 17:32:18 87° SW 17:37:16 10° SE
Cosmos 1606 Rocket 3.9 17:28:14 10° SSE 17:32:22 41° E 17:35:23 17° NNE
Cosmos 2360 4.2 17:27:10 10° SSW 17:32:51 71° ESE 17:37:25 17° NE
Thor Agena Rocket 4.3 17:29:07 10° S 17:34:14 57° WSW 17:39:20 10° NNW
Cosmos 2369 Rocket 4.0 17:31:04 10° W 17:35:32 23° NW 17:40:02 10° NNE
Cosmos 1943 Rocket 4.3 17:35:10 10° NNW 17:36:44 11° N 17:38:17 10° N
PSLV R/B 4.1 17:36:04 23° ESE 17:37:42 31° ENE 17:41:18 10° N
COSMO-SKYMED 1 3.9 17:39:14 19° ESE 17:39:14 19° ESE 17:41:17 10° SE
CZ-2D R/B 3.8 17:34:27 10° SE 17:38:25 43° ENE 17:42:21 10° N
NOSS 2-2 (D) 2.7 17:35:46 10° SW 17:38:58 73° NW 17:40:03 36° NE
Cosmos 1544 Rocket 4.1 17:37:08 10° SSW 17:41:28 60° WNW 17:45:53 10° N
SL-19 R/B 4.5 17:37:10 10° SE 17:42:16 45° ENE 17:47:40 10° N
BREEZE-M DEB (TANK) 3.7 17:39:13 10° W 17:42:20 65° S 17:48:33 17° ESE
Resurs 1-3 3.9 17:38:27 10° SE 17:42:27 39° ENE 17:46:28 10° N
Cosmos 1503 Rocket 4.0 17:37:26 10° S 17:42:36 64° ESE 17:46:10 20° NE
IRS-1C 4.4 17:40:44 10° S 17:46:02 70° WSW 17:51:23 10° NNW
Cosmos 2278 Rocket 4.3 17:44:51 10° NNW 17:46:45 12° N 17:48:38 10° NNE
Cosmos 1697 Rocket 2.9 17:42:41 10° S 17:48:02 48° ESE 17:50:45 27° NE
Okean 1-7 Rocket 3.6 17:44:08 10° NNW 17:48:34 80° W 17:52:55 10° S
Lacrosse 5 rocket 1.6 17:45:20 10° W 17:48:57 47° NNW 17:49:58 36° NNE
Cosmos 1354 Rocket 4.1 17:45:47 10° S 17:50:53 54° ESE 17:53:34 27° NE
BREEZE-M DEB (TANK) 3.6 17:48:16 10° W 17:51:29 87° N 17:57:03 24° E
Cosmos 1461 2.8 17:49:37 10° SSW 17:53:27 57° SE 17:54:17 45° ENE
NOSS 2-2 (E) 2.8 17:50:40 10° SW 17:53:51 66° NW 17:54:24 51° NNE
SJ-6F 4.5 17:50:55 10° S 17:54:53 75° WSW 17:58:56 10° NNW
Spot 4 Rocket 4.0 17:51:13 10° SSE 17:56:13 60° ENE 18:01:17 10° N
IRAS Rocket 4.2 17:52:08 10° SE 17:57:29 56° ENE 18:02:50 10° NNW
Cosmos 1726 Rocket 3.7 17:53:05 10° S 17:57:37 55° E 17:59:49 28° NNE
Cosmos 1655 Rocket 3.9 17:53:18 10° N 17:59:35 73° ENE 18:05:47 10° SSE
SKYMED 2 3.7 17:59:36 39° NE 18:00:47 51° E 18:05:01 10° S
Cosmos 1777 Rocket 4.0 17:56:26 10° SSW 18:01:42 83° WNW 18:05:19 21° NNE
Gbstr 26 Del rocket 3.9 17:59:07 10° SSW 18:02:31 28° SSE 18:02:38 28° SE
NOAA 15 4.5 18:01:29 10° SSE 18:06:46 75° ENE 18:12:04 10° NNW
Meteor 2-10 4.1 18:01:32 10° N 18:06:47 58° ENE 18:12:11 10° SSE
CENTAUR R/B 3.4 18:02:03 10° W 18:08:02 45° NNW 18:12:28 23° NE
YAOGAN 1 2.4 18:06:50 10° SSE 18:11:04 73° ENE 18:15:20 10° N
Cosmos 923 Rocket 4.5 18:08:07 10° NNW 18:12:39 39° NE 18:12:39 39° NE
Cosmos 1656 4.4 18:09:57 10° SW 18:15:26 51° NW 18:19:20 19° NNE
Cosmos 2082 3.8 18:10:11 10° NNW 18:15:46 52° NE 18:17:04 44° E
USA 281 4.2 18:17:15 26° NE 18:17:15 26° NE 18:22:28 10° NNW
Cosmos 1867 4.5 18:12:45 10° NW 18:18:01 49° WSW 18:23:13 10° SSE
USA 238 DEB 4.0 18:13:49 10° S 18:19:24 38° ESE 18:19:57 38° ESE
USA 238 4.0 18:13:57 10° S 18:19:32 38° ESE 18:20:02 38° ESE
SJ-7 4.0 18:19:53 81° N 18:19:53 81° N 18:23:31 10° NNW
Resurs 01 Rocket 3.7 18:25:00 15° N 18:25:00 15° N 18:25:52 10° N
Cosmos 2297 Rocket 4.2 18:17:28 10° NW 18:22:17 29° WSW 18:27:04 10° SSW
Cosmos 1953 Rocket 3.6 18:18:25 10° NNW 18:22:53 82° W 18:27:20 10° S
USA 215 3.3 18:22:49 41° E 18:25:12 67° NNE 18:31:43 10° WNW
Aureole 1 Rocket 4.2 18:24:41 10° S 18:27:16 32° SSE 18:27:16 32° SSE
Lacrosse 4 Rocket 3.7 18:31:25 10° WNW 18:33:42 14° NNW 18:34:34 14° NNW
CZ-4C R/B 4.0 18:27:58 10° NW 18:34:35 45° WSW 18:42:35 10° S
USA 81 4.0 18:31:11 10° N 18:36:29 85° W 18:41:45 10° S
Cosmos 990 Rocket 3.9 18:33:19 10° SSW 18:38:27 80° WNW 18:39:47 51° NNE
Cosmos 2219 3.1 18:34:06 10° NNW 18:39:53 85° ENE 18:41:35 48° SE
NOAA 6 3.9 18:36:22 10° SSE 18:41:28 86° WSW 18:46:37 10° NNW
Cosmos 1680 Rocket 4.4 18:41:15 10° NNW 18:44:28 35° N 18:44:28 35° N
Cosmos 1980 Rocket 2.3 18:44:56 10° SSW 18:49:48 59° SSE 18:49:48 59° SSE
Nadezhda 2 Rocket 4.3 18:47:41 10° N 18:53:53 89° ESE 19:00:00 10° S
Cosmos 2058 Rocket 4.4 18:49:31 10° S 18:51:55 31° SSW 18:51:55 31° SSW
Cosmos 1844 Rocket 3.7 18:49:03 10° NNW 18:52:37 33° N 18:52:37 33° N
Cosmos 2263 Rocket 2.9 18:55:27 10° NW 19:00:56 52° WSW 19:04:58 18° S
Cosmos 1553 Rocket 3.8 19:01:04 10° S 19:06:49 78° SSE 19:06:49 78° SSE
NOSS 3-2 (C) 3.7 19:04:37 10° WSW 19:09:52 56° NNW 19:10:27 53° N
Meteor 2-11 Rocket 4.3 19:03:48 10° N 19:09:57 88° N 19:09:57 88° N
NOSS 3-2 (A) 4.3 19:05:19 10° W 19:10:31 38° NNW 19:11:26 36° N
Cosmos 2227 Rocket 4.2 19:08:47 10° NW 19:13:25 26° WSW 19:18:01 10° SSW
COSMO-SKYMED 1 4.4 19:15:34 26° SW 19:15:34 26° SW 19:17:32 10° SW
Lacrosse 5 rocket 4.0 19:22:57 10° WNW 19:23:33 14° WNW 19:23:33 14° WNW
Cosmos 1697 Rocket 3.7 19:26:52 10° WSW 19:32:07 40° NW 19:32:28 39° NW
CENTAUR R/B 3.9 19:54:01 10° WNW 19:59:34 35° N 19:59:34 35° N
USA 281 4.4 20:04:08 33° NNW 20:04:08 33° NNW 20:07:32 10° NNW
USA 215 4.0 20:10:10 48° W 20:10:10 48° W 20:14:49 10° WNW
